When you browse on this site, cookies collect data to enhance your experience and personalize the content and advertising you see.
Visit our Privacy Policy to learn more. By continuing to use the site, you agree to this use of cookies and data.
  • In Spain
  • List of Countries
  • For 7 days
  • Water Temperature
  • Weather Map
  • Weather Widgets
  • user-avatar
    Login

    Hourly Weather Jutiapa

    Today, 20 February, Thursday

    Time Temperature Precipitation Wind Pressure Humidity
    00:00 +19°C° 0 mm 3 mps 673 mmHg 91%
    01:00 +18°C° 0 mm 3 mps 672 mmHg 91%
    02:00 +18°C° 0 mm 3 mps 672 mmHg 91%
    03:00 +18°C° 0 mm 3 mps 672 mmHg 90%
    04:00 +17°C° 0 mm 3 mps 672 mmHg 89%
    05:00 +17°C° 0 mm 3 mps 672 mmHg 87%
    06:00 +17°C° 0 mm 3 mps 672 mmHg 85%
    07:00 +20°C° 0 mm 3 mps 673 mmHg 72%
    08:00 +22°C° 0 mm 3 mps 674 mmHg 60%
    09:00 +26°C° 0 mm 3 mps 675 mmHg 47%
    10:00 +28°C° 0 mm 4 mps 675 mmHg 42%
    11:00 +30°C° 0 mm 4 mps 675 mmHg 37%
    12:00 +33°C° 0 mm 4 mps 675 mmHg 31%
    13:00 +33°C° 0 mm 4 mps 675 mmHg 30%
    14:00 +33°C° 0 mm 4 mps 674 mmHg 29%
    15:00 +33°C° 0 mm 4 mps 673 mmHg 27%
    16:00 +30°C° 0 mm 4 mps 673 mmHg 36%
    17:00 +28°C° 0 mm 3 mps 673 mmHg 45%
    18:00 +26°C° 0 mm 3 mps 673 mmHg 54%
    19:00 +24°C° 0 mm 3 mps 673 mmHg 64%
    20:00 +21°C° 0 mm 2 mps 674 mmHg 74%
    21:00 +20°C° 0 mm 2 mps 674 mmHg 84%
    22:00 +19°C° 0 mm 2 mps 674 mmHg 86%
    23:00 +19°C° 0 mm 2 mps 674 mmHg 89%

    Tomorrow, 21 February, Friday

    Time Temperature Precipitation Wind Pressure Humidity
    00:00 +19°C° 0 mm 3 mps 674 mmHg 91%
    07:00 +19°C° 0 mm 3 mps 674 mmHg 80%
    08:00 +21°C° 0 mm 3 mps 675 mmHg 67%
    09:00 +25°C° 0 mm 4 mps 676 mmHg 55%
    10:00 +27°C° 0 mm 4 mps 676 mmHg 46%
    11:00 +29°C° 0 mm 5 mps 677 mmHg 38%
    12:00 +32°C° 0 mm 5 mps 677 mmHg 30%
    13:00 +32°C° 0 mm 5 mps 676 mmHg 30%
    14:00 +32°C° 0 mm 6 mps 675 mmHg 29%
    15:00 +32°C° 0 mm 6 mps 675 mmHg 29%
    16:00 +29°C° 0 mm 5 mps 675 mmHg 36%
    17:00 +27°C° 0 mm 4 mps 675 mmHg 44%
    18:00 +23°C° 0 mm 4 mps 675 mmHg 51%
    19:00 +22°C° 0 mm 3 mps 675 mmHg 58%
    20:00 +20°C° 0 mm 3 mps 675 mmHg 66%
    21:00 +19°C° 0 mm 3 mps 675 mmHg 73%
    22:00 +18°C° 0 mm 3 mps 675 mmHg 77%
    23:00 +18°C° 0 mm 3 mps 675 mmHg 81%

    Day after tomorrow, 22 February, Saturday

    Time Temperature Precipitation Wind Pressure Humidity
    00:00 +18°C° 0 mm 3 mps 675 mmHg 85%
    01:00 +18°C° 0 mm 3 mps 674 mmHg 87%
    02:00 +17°C° 0 mm 3 mps 674 mmHg 88%
    03:00 +17°C° 0 mm 3 mps 673 mmHg 90%
    04:00 +17°C° 0 mm 3 mps 673 mmHg 89%
    05:00 +16°C° 0 mm 3 mps 674 mmHg 88%
    06:00 +16°C° 0 mm 3 mps 674 mmHg 87%
    07:00 +19°C° 0 mm 3 mps 675 mmHg 76%
    08:00 +21°C° 0 mm 4 mps 676 mmHg 64%
    09:00 +25°C° 0 mm 4 mps 677 mmHg 52%
    10:00 +26°C° 0 mm 5 mps 677 mmHg 48%
    11:00 +28°C° 0 mm 5 mps 677 mmHg 44%
    12:00 +29°C° 0 mm 6 mps 677 mmHg 39%
    13:00 +29°C° 0 mm 6 mps 676 mmHg 40%
    14:00 +29°C° 0 mm 6 mps 675 mmHg 40%
    15:00 +29°C° 0 mm 5 mps 675 mmHg 40%
    16:00 +28°C° 0 mm 5 mps 675 mmHg 47%
    17:00 +26°C° 0 mm 4 mps 675 mmHg 53%
    18:00 +24°C° 0 mm 3 mps 674 mmHg 60%
    19:00 +21°C° 0 mm 3 mps 674 mmHg 68%
    20:00 +20°C° 0 mm 3 mps 675 mmHg 76%
    21:00 +18°C° 0 mm 3 mps 675 mmHg 84%
    22:00 +18°C° 0 mm 3 mps 674 mmHg 86%
    23:00 +17°C° 0 mm 3 mps 674 mmHg 88%

    23 February, Sunday

    Time Temperature Precipitation Wind Pressure Humidity
    00:00 +17°C° 0 mm 3 mps 674 mmHg 91%
    01:00 +17°C° 0 mm 3 mps 674 mmHg 91%
    02:00 +17°C° 0 mm 3 mps 673 mmHg 91%
    03:00 +17°C° 0 mm 3 mps 673 mmHg 91%
    04:00 +16°C° 0 mm 3 mps 673 mmHg 91%
    05:00 +16°C° 0 mm 3 mps 673 mmHg 91%
    06:00 +16°C° 0 mm 2 mps 673 mmHg 91%
    07:00 +19°C° 0 mm 3 mps 674 mmHg 80%
    08:00 +21°C° 0 mm 3 mps 675 mmHg 68%
    09:00 +25°C° 0 mm 4 mps 676 mmHg 56%
    10:00 +26°C° 0 mm 4 mps 676 mmHg 49%
    11:00 +28°C° 0 mm 4 mps 676 mmHg 42%
    12:00 +30°C° 0 mm 4 mps 676 mmHg 36%
    13:00 +30°C° 0 mm 4 mps 675 mmHg 35%
    14:00 +30°C° 0 mm 3 mps 674 mmHg 35%
    15:00 +31°C° 0 mm 3 mps 674 mmHg 35%
    16:00 +28°C° 0 mm 2 mps 673 mmHg 43%
    17:00 +26°C° 0 mm 2 mps 673 mmHg 52%
    18:00 +24°C° 0 mm 1 mps 673 mmHg 60%
    19:00 +22°C° 0 mm 1 mps 673 mmHg 69%
    20:00 +20°C° 0 mm 1 mps 673 mmHg 77%
    21:00 +19°C° 0 mm 1 mps 673 mmHg 85%
    22:00 +18°C° 0 mm 1 mps 672 mmHg 87%
    23:00 +17°C° 0 mm 2 mps 672 mmHg 88%

    24 February, Monday

    Time Temperature Precipitation Wind Pressure Humidity
    00:00 +16°C° 0 mm 2 mps 672 mmHg 90%
    01:00 +16°C° 0 mm 2 mps 672 mmHg 89%
    02:00 +16°C° 0 mm 2 mps 671 mmHg 89%
    03:00 +16°C° 0 mm 2 mps 671 mmHg 88%
    04:00 +16°C° 0 mm 2 mps 671 mmHg 88%
    05:00 +16°C° 0 mm 1 mps 671 mmHg 87%
    06:00 +15°C° 0 mm 1 mps 671 mmHg 87%
    07:00 +20°C° 0 mm 1 mps 673 mmHg 74%
    08:00 +23°C° 0 mm 1 mps 674 mmHg 61%
    09:00 +26°C° 0 mm 1 mps 675 mmHg 48%
    10:00 +28°C° 0 mm 1 mps 675 mmHg 42%
    11:00 +30°C° 0 mm 2 mps 675 mmHg 36%
    12:00 +32°C° 0 mm 2 mps 675 mmHg 30%
    13:00 +33°C° 0 mm 3 mps 674 mmHg 32%
    14:00 +31°C° 0 mm 3 mps 673 mmHg 34%
    15:00 +32°C° 0 mm 4 mps 672 mmHg 36%
    16:00 +29°C° 0 mm 3 mps 672 mmHg 48%
    17:00 +26°C° 0 mm 3 mps 671 mmHg 61%
    18:00 +24°C° 0 mm 2 mps 671 mmHg 73%
    19:00 +21°C° 0 mm 2 mps 671 mmHg 81%
    20:00 +21°C° 0 mm 1 mps 671 mmHg 88%
    21:00 +20°C° 0 mm 1 mps 672 mmHg 96%
    22:00 +20°C° 0 mm 1 mps 672 mmHg 96%
    23:00 +18°C° 0 mm 0 mps 671 mmHg 96%

    25 February, Tuesday

    Time Temperature Precipitation Wind Pressure Humidity
    00:00 +18°C° 0 mm 0 mps 671 mmHg 95%
    01:00 +18°C° 0 mm 0 mps 671 mmHg 95%
    02:00 +18°C° 0 mm 0 mps 671 mmHg 94%
    03:00 +17°C° 0 mm 0 mps 670 mmHg 93%
    04:00 +17°C° 0 mm 0 mps 670 mmHg 93%
    05:00 +16°C° 0 mm 0 mps 671 mmHg 94%
    06:00 +16°C° 0 mm 0 mps 671 mmHg 95%
    07:00 +21°C° 0 mm 1 mps 672 mmHg 82%
    08:00 +24°C° 0 mm 1 mps 673 mmHg 70%
    09:00 +27°C° 0 mm 1 mps 674 mmHg 58%
    10:00 +28°C° 0 mm 1 mps 674 mmHg 52%
    11:00 +30°C° 0 mm 2 mps 674 mmHg 46%
    12:00 +32°C° 0 mm 2 mps 674 mmHg 39%
    13:00 +31°C° 0 mm 3 mps 673 mmHg 41%
    14:00 +31°C° 0 mm 3 mps 673 mmHg 43%
    15:00 +30°C° 0 mm 3 mps 672 mmHg 45%
    16:00 +28°C° 0 mm 3 mps 672 mmHg 52%
    17:00 +26°C° 0 mm 3 mps 672 mmHg 60%
    18:00 +24°C° 0 mm 2 mps 671 mmHg 67%
    19:00 +23°C° 0 mm 2 mps 672 mmHg 76%
    20:00 +21°C° 0 mm 1 mps 672 mmHg 85%
    21:00 +20°C° 0 mm 1 mps 672 mmHg 94%
    22:00 +20°C° 0 mm 1 mps 672 mmHg 94%
    23:00 +17°C° 0 mm 0 mps 672 mmHg 94%
    Show more